RZO134 LPLA-LPPT

Flight info

Callsign RZO134
Flight time 2h 0m
Altitude 37000
Route REGLA DCT BAVAS DCT LENSI T25 GUNTI/N0449F370 DCT LAZET
Aircraft A21N/M-SDE2E3FGHIRWXY/LB1

Departure

Time 2026-05-06 11:44
Airport Lajes Airport (LPLA)

Arrival

Time 2026-05-06 13:44
Airport Lisbon Humberto Delgado Airport (LPPT)
Time Latitude Longitude Altitude Speed Heading
2026-05-06 11:31 38.75547 -27.08746 178 ft 0 kts 320°
2026-05-06 11:41 38.75558 -27.08755 178 ft 7 kts 337°
2026-05-06 11:41 38.75585 -27.08710 178 ft 7 kts 86°
2026-05-06 11:41 38.75532 -27.08640 178 ft 13 kts 140°
2026-05-06 11:41 38.75470 -27.08575 178 ft 10 kts 131°
2026-05-06 11:42 38.75468 -27.08500 178 ft 8 kts 56°
2026-05-06 11:42 38.75501 -27.08447 178 ft 10 kts 51°
2026-05-06 11:42 38.75564 -27.08427 178 ft 5 kts 320°
2026-05-06 11:42 38.75568 -27.08431 178 ft 4 kts 320°
2026-05-06 11:43 38.75768 -27.08641 180 ft 78 kts 321°
2026-05-06 11:43 38.76387 -27.09287 179 ft 147 kts 320°
2026-05-06 11:43 38.77307 -27.10253 419 ft 182 kts 321°
2026-05-06 11:44 38.79449 -27.12253 1475 ft 206 kts 324°
2026-05-06 11:44 38.80692 -27.13369 1830 ft 230 kts 325°
2026-05-06 11:44 38.82243 -27.14122 2250 ft 251 kts 358°
2026-05-06 11:44 38.83927 -27.13482 2989 ft 261 kts 35°
2026-05-06 11:45 38.85034 -27.11647 3786 ft 267 kts 71°
2026-05-06 11:45 38.85127 -27.09284 4605 ft 271 kts 106°
2026-05-06 11:45 38.84147 -27.07204 5440 ft 273 kts 137°
2026-05-06 11:45 38.82718 -27.05575 6227 ft 278 kts 133°
2026-05-06 11:46 38.82586 -27.05386 6302 ft 279 kts 129°
2026-05-06 11:46 38.81784 -27.03129 6998 ft 284 kts 96°
2026-05-06 11:46 38.81970 -27.00612 7691 ft 287 kts 76°
2026-05-06 11:46 38.82328 -26.98076 8419 ft 292 kts 81°
2026-05-06 11:47 38.82580 -26.95435 9160 ft 297 kts 83°
2026-05-06 11:47 38.82770 -26.92778 9864 ft 302 kts 84°
2026-05-06 11:47 38.82937 -26.90070 10457 ft 311 kts 84°
2026-05-06 11:47 38.83106 -26.87205 10633 ft 334 kts 84°
2026-05-06 11:48 38.83291 -26.84135 10841 ft 354 kts 84°
2026-05-06 11:48 38.83489 -26.80950 11365 ft 362 kts 84°
2026-05-06 11:48 38.83697 -26.77713 11983 ft 366 kts 84°
2026-05-06 11:48 38.83912 -26.74440 12604 ft 371 kts 84°
2026-05-06 11:49 38.84132 -26.71129 13228 ft 375 kts 83°
2026-05-06 11:49 38.84354 -26.67780 13838 ft 379 kts 83°
2026-05-06 11:49 38.84576 -26.64397 14400 ft 383 kts 83°
2026-05-06 11:49 38.84799 -26.60976 14938 ft 387 kts 83°
2026-05-06 11:50 38.85021 -26.57521 15478 ft 390 kts 84°
2026-05-06 11:50 38.85247 -26.53987 16023 ft 394 kts 84°
2026-05-06 11:50 38.85471 -26.50466 16551 ft 398 kts 84°
2026-05-06 11:50 38.85695 -26.46918 17081 ft 401 kts 84°
2026-05-06 11:51 38.85923 -26.43335 17605 ft 404 kts 84°
2026-05-06 11:51 38.86153 -26.39725 18126 ft 408 kts 84°
2026-05-06 11:51 38.86382 -26.36086 18631 ft 411 kts 84°
2026-05-06 11:51 38.86611 -26.32411 19065 ft 414 kts 84°
2026-05-06 11:52 38.86840 -26.28708 19491 ft 418 kts 84°
2026-05-06 11:52 38.87068 -26.24979 19916 ft 421 kts 84°
2026-05-06 11:52 38.87297 -26.21219 20360 ft 424 kts 84°
2026-05-06 11:52 38.87527 -26.17435 20767 ft 427 kts 84°
2026-05-06 11:53 38.87757 -26.13620 21174 ft 430 kts 84°
2026-05-06 11:53 38.87987 -26.09772 21575 ft 434 kts 84°
2026-05-06 11:53 38.88219 -26.05901 21972 ft 437 kts 84°
2026-05-06 11:53 38.88457 -26.01946 22370 ft 440 kts 83°
2026-05-06 11:54 38.88693 -25.98016 22752 ft 443 kts 83°
2026-05-06 11:54 38.88926 -25.94058 23152 ft 446 kts 83°
2026-05-06 11:54 38.89156 -25.90076 23574 ft 448 kts 83°
2026-05-06 11:54 38.89387 -25.86072 23940 ft 451 kts 83°
2026-05-06 11:55 38.89619 -25.82046 24244 ft 454 kts 83°
2026-05-06 11:55 38.89853 -25.77992 24553 ft 457 kts 83°
2026-05-06 11:55 38.90086 -25.73919 24857 ft 459 kts 83°
2026-05-06 11:55 38.90318 -25.69818 25159 ft 462 kts 83°
2026-05-06 11:56 38.90549 -25.65697 25454 ft 464 kts 83°
2026-05-06 11:56 38.90782 -25.61548 25765 ft 466 kts 83°
2026-05-06 11:56 38.91015 -25.57390 26077 ft 468 kts 83°
2026-05-06 11:56 38.91247 -25.53209 26367 ft 471 kts 83°
2026-05-06 11:57 38.91480 -25.49006 26649 ft 473 kts 83°
2026-05-06 11:57 38.91711 -25.44778 26924 ft 476 kts 83°
2026-05-06 11:57 38.91940 -25.40527 27201 ft 478 kts 83°
2026-05-06 11:57 38.92173 -25.36256 27479 ft 481 kts 83°
2026-05-06 11:58 38.92406 -25.31962 27751 ft 483 kts 83°
2026-05-06 11:58 38.92637 -25.27648 28026 ft 485 kts 83°
2026-05-06 11:58 38.92865 -25.23316 28311 ft 487 kts 83°
2026-05-06 11:58 38.93089 -25.18964 28578 ft 489 kts 83°
2026-05-06 11:59 38.93238 -25.16073 28749 ft 491 kts 83°
2026-05-06 11:59 38.93463 -25.11687 28996 ft 493 kts 83°
2026-05-06 11:59 38.93688 -25.07283 29238 ft 495 kts 82°
2026-05-06 11:59 38.93914 -25.02861 29477 ft 497 kts 82°
2026-05-06 12:00 38.94142 -24.98417 29725 ft 499 kts 82°
2026-05-06 12:00 38.94371 -24.93958 29946 ft 502 kts 82°
2026-05-06 12:00 38.94599 -24.89478 30169 ft 504 kts 82°
2026-05-06 12:00 38.94823 -24.84977 30381 ft 506 kts 82°
2026-05-06 12:01 38.95043 -24.80457 30575 ft 508 kts 82°
2026-05-06 12:01 38.95262 -24.75921 30769 ft 509 kts 82°
2026-05-06 12:01 38.95487 -24.71314 30961 ft 511 kts 82°
2026-05-06 12:01 38.95706 -24.66750 31158 ft 512 kts 82°
2026-05-06 12:02 38.95921 -24.62181 31402 ft 512 kts 82°
2026-05-06 12:02 38.96131 -24.57618 31684 ft 511 kts 82°
2026-05-06 12:02 38.96343 -24.53059 31944 ft 511 kts 82°
2026-05-06 12:02 38.96556 -24.48505 32220 ft 511 kts 82°
2026-05-06 12:03 38.96766 -24.43954 32454 ft 510 kts 82°
2026-05-06 12:03 38.96972 -24.39402 32703 ft 510 kts 82°
2026-05-06 12:03 38.97176 -24.34851 32978 ft 510 kts 82°
2026-05-06 12:03 38.97382 -24.30302 33232 ft 510 kts 82°
2026-05-06 12:04 38.97588 -24.25762 33483 ft 509 kts 82°
2026-05-06 12:04 38.97793 -24.21217 33731 ft 509 kts 82°
2026-05-06 12:04 38.97992 -24.16678 33984 ft 509 kts 82°
2026-05-06 12:04 38.98187 -24.12143 34229 ft 508 kts 82°
2026-05-06 12:05 38.98379 -24.07607 34435 ft 508 kts 82°
2026-05-06 12:05 38.98569 -24.03079 34694 ft 507 kts 82°
2026-05-06 12:05 38.98757 -23.98557 34935 ft 506 kts 82°
2026-05-06 12:05 38.98941 -23.94050 35171 ft 505 kts 82°
2026-05-06 12:06 38.99126 -23.89545 35395 ft 504 kts 82°
2026-05-06 12:06 38.99311 -23.85056 35747 ft 498 kts 82°
2026-05-06 12:06 38.99489 -23.80656 36306 ft 490 kts 82°
2026-05-06 12:06 38.99665 -23.76296 36592 ft 487 kts 82°
2026-05-06 12:07 38.99838 -23.71950 36795 ft 487 kts 82°
2026-05-06 12:07 39.00007 -23.67603 36945 ft 487 kts 82°
2026-05-06 12:07 39.00134 -23.63244 37077 ft 489 kts 83°
2026-05-06 12:07 39.00212 -23.58877 37239 ft 489 kts 84°
2026-05-06 12:08 39.00302 -23.50090 37288 ft 495 kts 84°
2026-05-06 12:08 39.00388 -23.41152 37304 ft 497 kts 84°
2026-05-06 12:09 39.00501 -23.32288 37290 ft 496 kts 84°
2026-05-06 12:09 39.00616 -23.23432 37284 ft 496 kts 84°
2026-05-06 12:10 39.00723 -23.14562 37283 ft 496 kts 84°
2026-05-06 12:10 39.00822 -23.05698 37304 ft 496 kts 84°
2026-05-06 12:11 39.00906 -22.96839 37276 ft 495 kts 84°
2026-05-06 12:11 39.00976 -22.87983 37288 ft 495 kts 84°
2026-05-06 12:12 39.01055 -22.79129 37282 ft 495 kts 84°
2026-05-06 12:12 39.01133 -22.70285 37302 ft 495 kts 84°
2026-05-06 12:13 39.01202 -22.61445 37297 ft 494 kts 84°
2026-05-06 12:13 39.01248 -22.52618 37293 ft 494 kts 84°
2026-05-06 12:14 39.01295 -22.43734 37308 ft 493 kts 84°
2026-05-06 12:14 39.01338 -22.34916 37297 ft 493 kts 84°
2026-05-06 12:15 39.01374 -22.26102 37293 ft 493 kts 84°
2026-05-06 12:15 39.01399 -22.17292 37283 ft 493 kts 84°
2026-05-06 12:16 39.01423 -22.08485 37283 ft 493 kts 84°
2026-05-06 12:16 39.01438 -21.99681 37276 ft 493 kts 84°
2026-05-06 12:17 39.01442 -21.90871 37261 ft 493 kts 84°
2026-05-06 12:17 39.01440 -21.82063 37269 ft 492 kts 84°
2026-05-06 12:18 39.01442 -21.73263 37287 ft 492 kts 84°
2026-05-06 12:18 39.01433 -21.64467 37283 ft 492 kts 84°
2026-05-06 12:19 39.01414 -21.55679 37283 ft 491 kts 84°
2026-05-06 12:19 39.01387 -21.46893 37299 ft 491 kts 84°
2026-05-06 12:20 39.01361 -21.38113 37293 ft 491 kts 84°
2026-05-06 12:20 39.01327 -21.29343 37284 ft 490 kts 84°
2026-05-06 12:21 39.01280 -21.20521 37275 ft 490 kts 84°
2026-05-06 12:21 39.01230 -21.11764 37293 ft 490 kts 84°
2026-05-06 12:22 39.01177 -21.03013 37284 ft 489 kts 84°
2026-05-06 12:22 39.01110 -20.94273 37278 ft 488 kts 84°
2026-05-06 12:23 39.01032 -20.85543 37267 ft 488 kts 84°
2026-05-06 12:23 39.00958 -20.76820 37280 ft 488 kts 84°
2026-05-06 12:24 39.00879 -20.68105 37275 ft 487 kts 84°
2026-05-06 12:24 39.00783 -20.59402 37272 ft 487 kts 84°
2026-05-06 12:25 39.00679 -20.50702 37268 ft 486 kts 84°
2026-05-06 12:25 39.00582 -20.42009 37287 ft 486 kts 84°
2026-05-06 12:26 39.00476 -20.33319 37278 ft 486 kts 84°
2026-05-06 12:26 39.00368 -20.24632 37264 ft 486 kts 85°
2026-05-06 12:27 39.00250 -20.15950 37261 ft 486 kts 85°
2026-05-06 12:27 39.00124 -20.07209 37275 ft 486 kts 85°
2026-05-06 12:28 38.99991 -19.98532 37262 ft 485 kts 84°
2026-05-06 12:28 39.00079 -19.89888 37255 ft 482 kts 82°
2026-05-06 12:29 39.00343 -19.81282 37254 ft 482 kts 81°
2026-05-06 12:29 39.00576 -19.72662 37249 ft 482 kts 82°
2026-05-06 12:30 39.00742 -19.64047 37242 ft 483 kts 82°
2026-05-06 12:30 39.00856 -19.56874 37240 ft 483 kts 82°
2026-05-06 12:31 39.00996 -19.48241 37240 ft 483 kts 82°
2026-05-06 12:31 39.01140 -19.39604 37265 ft 483 kts 82°
2026-05-06 12:32 39.01282 -19.30905 37253 ft 483 kts 82°
2026-05-06 12:32 39.01406 -19.22260 37246 ft 484 kts 82°
2026-05-06 12:33 39.01530 -19.13615 37247 ft 484 kts 82°
2026-05-06 12:33 39.01653 -19.04970 37242 ft 483 kts 82°
2026-05-06 12:34 39.01766 -18.96329 37231 ft 483 kts 82°
2026-05-06 12:34 39.01865 -18.87681 37230 ft 484 kts 82°
2026-05-06 12:35 39.01961 -18.79031 37225 ft 484 kts 82°
2026-05-06 12:35 39.02057 -18.70371 37227 ft 484 kts 83°
2026-05-06 12:36 39.02142 -18.61711 37232 ft 484 kts 83°
2026-05-06 12:36 39.02218 -18.53048 37232 ft 485 kts 83°
2026-05-06 12:37 39.02295 -18.44383 37244 ft 485 kts 83°
2026-05-06 12:37 39.02367 -18.35718 37246 ft 485 kts 83°
2026-05-06 12:38 39.02426 -18.27043 37237 ft 485 kts 83°
2026-05-06 12:38 39.02473 -18.18371 37215 ft 485 kts 83°
2026-05-06 12:39 39.02522 -18.09698 37216 ft 485 kts 83°
2026-05-06 12:39 39.02574 -18.01022 37239 ft 485 kts 83°
2026-05-06 12:40 39.02600 -17.92345 37237 ft 485 kts 83°
2026-05-06 12:40 39.02617 -17.83664 37223 ft 485 kts 83°
2026-05-06 12:41 39.02643 -17.74928 37220 ft 485 kts 83°
2026-05-06 12:41 39.02661 -17.66252 37236 ft 485 kts 83°
2026-05-06 12:42 39.02670 -17.57579 37223 ft 485 kts 83°
2026-05-06 12:42 39.02675 -17.48911 37226 ft 485 kts 83°
2026-05-06 12:43 39.02673 -17.40242 37219 ft 485 kts 83°
2026-05-06 12:43 39.02663 -17.31576 37229 ft 484 kts 83°
2026-05-06 12:44 39.02645 -17.22920 37220 ft 484 kts 83°
2026-05-06 12:44 39.02621 -17.14267 37208 ft 484 kts 83°
2026-05-06 12:45 39.02590 -17.05614 37208 ft 484 kts 83°
2026-05-06 12:46 39.02532 -16.92639 37219 ft 483 kts 84°
2026-05-06 12:46 39.02484 -16.84001 37209 ft 483 kts 84°
2026-05-06 12:47 39.02437 -16.75361 37183 ft 483 kts 84°
2026-05-06 12:47 39.02381 -16.66732 37219 ft 483 kts 84°
2026-05-06 12:48 39.02311 -16.58100 37206 ft 483 kts 84°
2026-05-06 12:48 39.02234 -16.49473 37199 ft 482 kts 84°
2026-05-06 12:49 39.02162 -16.40847 37191 ft 482 kts 84°
2026-05-06 12:49 39.02083 -16.32227 37219 ft 482 kts 85°
2026-05-06 12:50 39.01997 -16.23601 37201 ft 482 kts 85°
2026-05-06 12:50 39.01897 -16.14974 37192 ft 483 kts 85°
2026-05-06 12:51 39.01792 -16.06344 37189 ft 483 kts 85°
2026-05-06 12:51 39.01681 -15.97716 37215 ft 483 kts 86°
2026-05-06 12:52 39.01563 -15.89081 37189 ft 483 kts 86°
2026-05-06 12:52 39.01437 -15.80441 37178 ft 483 kts 86°
2026-05-06 12:53 39.01314 -15.71803 37178 ft 483 kts 86°
2026-05-06 12:53 39.01183 -15.63103 37199 ft 484 kts 86°
2026-05-06 12:54 39.01045 -15.54458 37185 ft 484 kts 86°
2026-05-06 12:54 39.00901 -15.45813 37179 ft 484 kts 86°
2026-05-06 12:55 39.00739 -15.37171 37174 ft 484 kts 86°
2026-05-06 12:55 39.00575 -15.28472 37160 ft 483 kts 86°
2026-05-06 12:56 39.00406 -15.19841 37075 ft 480 kts 86°
2026-05-06 12:56 39.00319 -15.15605 36939 ft 468 kts 86°
2026-05-06 12:56 39.00230 -15.11477 36805 ft 456 kts 86°
2026-05-06 12:56 39.00143 -15.07447 36674 ft 447 kts 86°
2026-05-06 12:57 39.00062 -15.03475 36544 ft 443 kts 86°
2026-05-06 12:57 38.99984 -14.99527 36416 ft 441 kts 85°
2026-05-06 12:57 38.99935 -14.95590 36289 ft 440 kts 84°
2026-05-06 12:58 38.99952 -14.87741 36065 ft 439 kts 84°
2026-05-06 12:58 38.99981 -14.83813 35940 ft 439 kts 84°
2026-05-06 12:58 39.00006 -14.79896 35815 ft 439 kts 84°
2026-05-06 12:58 39.00018 -14.75975 35688 ft 439 kts 84°
2026-05-06 12:59 39.00018 -14.72057 35565 ft 438 kts 84°
2026-05-06 12:59 39.00008 -14.68137 35425 ft 438 kts 84°
2026-05-06 12:59 38.99992 -14.64221 35320 ft 438 kts 84°
2026-05-06 12:59 38.99978 -14.60255 35196 ft 438 kts 84°
2026-05-06 13:00 38.99965 -14.56345 35093 ft 438 kts 84°
2026-05-06 13:00 38.99953 -14.52427 34974 ft 439 kts 85°
2026-05-06 13:00 38.99938 -14.48505 34856 ft 439 kts 85°
2026-05-06 13:00 38.99923 -14.44582 34730 ft 439 kts 85°
2026-05-06 13:01 38.99907 -14.40662 34611 ft 439 kts 85°
2026-05-06 13:01 38.99890 -14.36740 34493 ft 439 kts 85°
2026-05-06 13:01 38.99874 -14.32819 34372 ft 438 kts 84°
2026-05-06 13:01 38.99859 -14.28902 34255 ft 438 kts 84°
2026-05-06 13:02 38.99841 -14.24985 34135 ft 438 kts 85°
2026-05-06 13:02 38.99786 -14.17140 33901 ft 441 kts 86°
2026-05-06 13:03 38.99742 -14.10527 33674 ft 443 kts 85°
2026-05-06 13:03 38.99715 -14.06566 33539 ft 443 kts 85°
2026-05-06 13:03 38.99685 -14.02602 33405 ft 444 kts 85°
2026-05-06 13:03 38.99654 -13.98637 33272 ft 444 kts 85°
2026-05-06 13:04 38.99625 -13.94669 33136 ft 444 kts 85°
2026-05-06 13:04 38.99595 -13.90696 33002 ft 444 kts 85°
2026-05-06 13:04 38.99560 -13.86717 32873 ft 448 kts 85°
2026-05-06 13:04 38.99527 -13.82658 32788 ft 460 kts 86°
2026-05-06 13:05 38.99498 -13.78502 32682 ft 470 kts 87°
2026-05-06 13:05 38.99464 -13.74254 32561 ft 480 kts 87°
2026-05-06 13:05 38.99424 -13.69930 32438 ft 487 kts 87°
2026-05-06 13:05 38.99377 -13.65569 32335 ft 489 kts 88°
2026-05-06 13:06 38.99327 -13.61190 32232 ft 491 kts 88°
2026-05-06 13:06 38.99275 -13.56804 32130 ft 491 kts 88°
2026-05-06 13:06 38.99221 -13.52410 32029 ft 492 kts 88°
2026-05-06 13:07 38.99104 -13.43554 31850 ft 493 kts 89°
2026-05-06 13:07 38.99047 -13.39143 31749 ft 494 kts 88°
2026-05-06 13:07 38.98990 -13.34732 31645 ft 494 kts 89°
2026-05-06 13:08 38.98867 -13.25899 31446 ft 494 kts 89°
2026-05-06 13:08 38.98745 -13.17058 31242 ft 495 kts 89°
2026-05-06 13:09 38.98611 -13.08213 31056 ft 495 kts 90°
2026-05-06 13:09 38.98468 -12.99355 30860 ft 496 kts 90°
2026-05-06 13:10 38.98322 -12.90491 30659 ft 496 kts 90°
2026-05-06 13:10 38.98169 -12.81622 30462 ft 497 kts 90°
2026-05-06 13:11 38.98009 -12.72748 30256 ft 497 kts 90°
2026-05-06 13:11 38.97925 -12.68309 30134 ft 497 kts 90°
2026-05-06 13:11 38.97839 -12.63870 29987 ft 497 kts 91°
2026-05-06 13:11 38.97751 -12.59428 29841 ft 497 kts 91°
2026-05-06 13:12 38.97664 -12.54988 29698 ft 497 kts 91°
2026-05-06 13:12 38.97576 -12.50488 29555 ft 497 kts 91°
2026-05-06 13:12 38.97484 -12.46046 29413 ft 497 kts 91°
2026-05-06 13:12 38.97391 -12.41603 29272 ft 497 kts 91°
2026-05-06 13:13 38.97294 -12.37161 29144 ft 497 kts 91°
2026-05-06 13:13 38.97199 -12.32719 29000 ft 498 kts 91°
2026-05-06 13:13 38.97105 -12.28271 28861 ft 498 kts 91°
2026-05-06 13:13 38.97009 -12.23829 28724 ft 498 kts 91°
2026-05-06 13:14 38.96909 -12.19384 28589 ft 498 kts 91°
2026-05-06 13:14 38.96807 -12.14943 28449 ft 498 kts 91°
2026-05-06 13:14 38.96698 -12.10501 28315 ft 497 kts 92°
2026-05-06 13:14 38.96586 -12.06100 28042 ft 487 kts 92°
2026-05-06 13:15 38.96476 -12.01782 27334 ft 482 kts 92°
2026-05-06 13:15 38.96366 -11.97486 26486 ft 480 kts 92°
2026-05-06 13:15 38.96260 -11.93198 25581 ft 480 kts 92°
2026-05-06 13:15 38.96153 -11.88912 24730 ft 479 kts 93°
2026-05-06 13:16 38.95738 -11.84661 24282 ft 467 kts 102°
2026-05-06 13:16 38.95143 -11.80640 24181 ft 449 kts 102°
2026-05-06 13:16 38.94602 -11.76765 24084 ft 433 kts 101°
2026-05-06 13:16 38.94094 -11.73027 23984 ft 417 kts 101°
2026-05-06 13:17 38.93590 -11.69340 23875 ft 426 kts 101°
2026-05-06 13:17 38.93057 -11.65523 23536 ft 439 kts 102°
2026-05-06 13:17 38.92507 -11.61661 23143 ft 440 kts 102°
2026-05-06 13:17 38.91948 -11.57801 22774 ft 438 kts 102°
2026-05-06 13:18 38.91385 -11.53967 22384 ft 436 kts 102°
2026-05-06 13:18 38.90823 -11.50154 22004 ft 433 kts 102°
2026-05-06 13:18 38.90265 -11.46369 21639 ft 430 kts 102°
2026-05-06 13:18 38.89711 -11.42607 21278 ft 428 kts 102°
2026-05-06 13:19 38.89159 -11.38864 20914 ft 425 kts 102°
2026-05-06 13:19 38.88611 -11.35147 20559 ft 423 kts 101°
2026-05-06 13:19 38.88072 -11.31452 20216 ft 420 kts 101°
2026-05-06 13:19 38.87536 -11.27779 19864 ft 417 kts 101°
2026-05-06 13:20 38.87001 -11.24130 19514 ft 415 kts 101°
2026-05-06 13:20 38.86466 -11.20502 19177 ft 412 kts 101°
2026-05-06 13:20 38.85923 -11.16849 18836 ft 411 kts 101°
2026-05-06 13:20 38.85386 -11.13257 18505 ft 409 kts 101°
2026-05-06 13:21 38.84856 -11.09705 18148 ft 401 kts 101°
2026-05-06 13:21 38.84337 -11.06220 17769 ft 394 kts 101°
2026-05-06 13:21 38.83827 -11.02800 17455 ft 386 kts 101°
2026-05-06 13:21 38.83325 -10.99455 17189 ft 378 kts 101°
2026-05-06 13:22 38.82831 -10.96177 16915 ft 372 kts 101°
2026-05-06 13:22 38.82338 -10.92928 16655 ft 370 kts 102°
2026-05-06 13:22 38.81846 -10.89686 16398 ft 370 kts 102°
2026-05-06 13:22 38.81355 -10.86457 16122 ft 368 kts 101°
2026-05-06 13:23 38.80868 -10.83250 15858 ft 366 kts 101°
2026-05-06 13:23 38.80382 -10.80054 15559 ft 365 kts 101°
2026-05-06 13:23 38.79895 -10.76865 15263 ft 364 kts 101°
2026-05-06 13:23 38.79413 -10.73696 14964 ft 360 kts 101°
2026-05-06 13:24 38.78935 -10.70546 14669 ft 359 kts 101°
2026-05-06 13:24 38.78456 -10.67396 14380 ft 360 kts 101°
2026-05-06 13:24 38.77970 -10.64222 14089 ft 356 kts 101°
2026-05-06 13:24 38.77494 -10.61117 13797 ft 355 kts 101°
2026-05-06 13:25 38.77016 -10.58020 13474 ft 354 kts 101°
2026-05-06 13:25 38.76540 -10.54940 13158 ft 350 kts 101°
2026-05-06 13:25 38.76072 -10.51912 12888 ft 342 kts 101°
2026-05-06 13:25 38.75613 -10.48950 12624 ft 335 kts 101°
2026-05-06 13:26 38.75160 -10.46050 12366 ft 329 kts 101°
2026-05-06 13:26 38.74717 -10.43199 12110 ft 323 kts 101°
2026-05-06 13:26 38.74283 -10.40400 11853 ft 317 kts 101°
2026-05-06 13:26 38.73859 -10.37651 11600 ft 312 kts 101°
2026-05-06 13:27 38.73440 -10.34947 11351 ft 308 kts 101°
2026-05-06 13:27 38.73022 -10.32274 11103 ft 304 kts 101°
2026-05-06 13:27 38.72605 -10.29632 10857 ft 302 kts 101°
2026-05-06 13:27 38.72192 -10.27004 10613 ft 300 kts 101°
2026-05-06 13:28 38.71778 -10.24383 10363 ft 301 kts 101°
2026-05-06 13:28 38.71366 -10.21767 10122 ft 299 kts 101°
2026-05-06 13:28 38.70961 -10.19174 9943 ft 296 kts 101°
2026-05-06 13:28 38.70558 -10.16595 9810 ft 295 kts 101°
2026-05-06 13:29 38.70147 -10.13986 9677 ft 295 kts 101°
2026-05-06 13:29 38.69744 -10.11450 9553 ft 294 kts 101°
2026-05-06 13:29 38.69335 -10.08889 9410 ft 293 kts 101°
2026-05-06 13:29 38.68929 -10.06339 9278 ft 292 kts 101°
2026-05-06 13:30 38.68524 -10.03790 9143 ft 293 kts 100°
2026-05-06 13:30 38.68114 -10.01202 9009 ft 292 kts 100°
2026-05-06 13:30 38.67710 -9.98657 8869 ft 291 kts 99°
2026-05-06 13:30 38.67617 -9.96053 8151 ft 299 kts 81°
2026-05-06 13:31 38.68010 -9.93389 7348 ft 311 kts 78°
2026-05-06 13:31 38.68145 -9.90596 6657 ft 320 kts 91°
2026-05-06 13:31 38.67956 -9.87755 5913 ft 316 kts 92°
2026-05-06 13:31 38.67970 -9.85033 5142 ft 304 kts 85°
2026-05-06 13:32 38.67941 -9.82302 4076 ft 306 kts 90°
2026-05-06 13:32 38.67691 -9.79720 4034 ft 278 kts 96°
2026-05-06 13:32 38.67352 -9.77324 4041 ft 272 kts 97°
2026-05-06 13:32 38.67105 -9.75725 4045 ft 269 kts 97°
2026-05-06 13:33 38.66748 -9.73485 4039 ft 245 kts 98°
2026-05-06 13:33 38.66415 -9.71376 4045 ft 240 kts 97°
2026-05-06 13:33 38.66092 -9.69279 4046 ft 240 kts 97°
2026-05-06 13:33 38.65776 -9.67181 4038 ft 240 kts 96°
2026-05-06 13:34 38.65463 -9.65088 4034 ft 240 kts 95°
2026-05-06 13:34 38.65151 -9.62992 4033 ft 240 kts 96°
2026-05-06 13:34 38.64839 -9.60901 4035 ft 239 kts 97°
2026-05-06 13:34 38.64523 -9.58786 4035 ft 239 kts 96°
2026-05-06 13:35 38.64220 -9.56694 4036 ft 239 kts 96°
2026-05-06 13:35 38.63914 -9.54611 4037 ft 239 kts 96°
2026-05-06 13:35 38.63600 -9.52525 4025 ft 239 kts 97°
2026-05-06 13:35 38.63285 -9.50443 4030 ft 237 kts 97°
2026-05-06 13:36 38.62972 -9.48368 4030 ft 238 kts 97°
2026-05-06 13:36 38.62658 -9.46283 4030 ft 240 kts 96°
2026-05-06 13:36 38.62343 -9.44194 4031 ft 239 kts 97°
2026-05-06 13:36 38.62030 -9.42115 4028 ft 238 kts 98°
2026-05-06 13:37 38.61724 -9.40100 4025 ft 224 kts 97°
2026-05-06 13:37 38.61435 -9.38201 4010 ft 212 kts 97°
2026-05-06 13:37 38.61160 -9.36411 4036 ft 199 kts 95°
2026-05-06 13:37 38.60896 -9.34687 4028 ft 196 kts 96°
2026-05-06 13:38 38.60637 -9.32978 4023 ft 196 kts 97°
2026-05-06 13:38 38.60377 -9.31268 4019 ft 195 kts 96°
2026-05-06 13:38 38.60123 -9.29598 4024 ft 183 kts 96°
2026-05-06 13:38 38.59884 -9.28043 4016 ft 176 kts 95°
2026-05-06 13:39 38.59711 -9.26511 4017 ft 172 kts 85°
2026-05-06 13:39 38.59894 -9.25038 4020 ft 166 kts 65°
2026-05-06 13:39 38.60420 -9.23751 3984 ft 164 kts 50°
2026-05-06 13:39 38.61222 -9.22739 3698 ft 161 kts 31°
2026-05-06 13:40 38.62203 -9.22092 3440 ft 157 kts 19°
2026-05-06 13:40 38.63208 -9.21556 3197 ft 155 kts 19°
2026-05-06 13:40 38.64204 -9.21026 2990 ft 154 kts 19°
2026-05-06 13:40 38.65200 -9.20495 2811 ft 152 kts 19°
2026-05-06 13:41 38.66172 -9.19977 2591 ft 150 kts 18°
2026-05-06 13:41 38.67141 -9.19462 2387 ft 151 kts 18°
2026-05-06 13:41 38.68117 -9.18942 2172 ft 151 kts 18°
2026-05-06 13:41 38.69054 -9.18441 1973 ft 143 kts 18°
2026-05-06 13:42 38.69962 -9.17957 1789 ft 140 kts 17°
2026-05-06 13:42 38.70855 -9.17480 1596 ft 138 kts 17°
2026-05-06 13:42 38.71745 -9.17006 1410 ft 140 kts 18°
2026-05-06 13:42 38.72652 -9.16522 1210 ft 142 kts 17°
2026-05-06 13:43 38.73572 -9.16032 1026 ft 143 kts 17°
2026-05-06 13:43 38.74484 -9.15544 832 ft 141 kts 19°
2026-05-06 13:43 38.75412 -9.15049 654 ft 143 kts 17°
2026-05-06 13:43 38.76419 -9.14506 420 ft 142 kts 18°
2026-05-06 13:44 38.77319 -9.14029 361 ft 131 kts 19°
2026-05-06 13:44 38.77962 -9.13695 366 ft 63 kts 23°
2026-05-06 13:44 38.78193 -9.13557 370 ft 30 kts 30°
2026-05-06 13:44 38.78343 -9.13393 368 ft 23 kts 45°
2026-05-06 13:45 38.78374 -9.13300 367 ft 10 kts 95°
2026-05-06 13:45 38.78257 -9.13298 359 ft 9 kts 204°
2026-05-06 13:45 38.78200 -9.13327 359 ft 9 kts 201°
2026-05-06 13:46 38.78113 -9.13374 360 ft 20 kts 203°
2026-05-06 13:46 38.77967 -9.13400 354 ft 22 kts 170°
2026-05-06 13:46 38.77810 -9.13355 353 ft 24 kts 167°
2026-05-06 13:46 38.77635 -9.13320 336 ft 27 kts 177°
2026-05-06 13:47 38.77453 -9.13282 337 ft 26 kts 167°
2026-05-06 13:47 38.77394 -9.13268 334 ft 25 kts 171°
2026-05-06 13:47 38.77289 -9.13246 338 ft 23 kts 169°
2026-05-06 13:47 38.77140 -9.13206 338 ft 21 kts 168°
2026-05-06 13:48 38.77030 -9.13176 338 ft 8 kts 160°
2026-05-06 13:48 38.77024 -9.13114 336 ft 6 kts 79°
2026-05-06 13:48 38.77028 -9.13088 337 ft 0 kts 78°